TimeEDT,TemperatureF,Dew PointF,Humidity,Sea Level PressureIn,VisibilityMPH,Wind Direction,Wind SpeedMPH,Gust SpeedMPH,PrecipitationIn,Events,Conditions,WindDirDegrees,DateUTC
12:51 AM,66.0,57.9,75,30.02,10.0,NNE,4.6,-,0.00,,Overcast,20,2013-07-26 04:51:00
1:51 AM,66.0,57.9,75,30.01,10.0,NE,4.6,-,N/A,,Overcast,40,2013-07-26 05:51:00
2:51 AM,66.0,57.9,75,30.00,10.0,North,6.9,-,0.00,Rain,Light Rain,10,2013-07-26 06:51:00
3:51 AM,66.9,57.9,73,30.00,10.0,North,5.8,-,0.00,,Overcast,10,2013-07-26 07:51:00
4:51 AM,66.0,59.0,78,29.99,10.0,North,8.1,-,N/A,,Overcast,350,2013-07-26 08:51:00
5:51 AM,66.9,59.0,76,30.00,10.0,North,5.8,-,N/A,,Overcast,350,2013-07-26 09:51:00
6:51 AM,66.9,59.0,76,30.01,10.0,North,6.9,-,N/A,,Overcast,350,2013-07-26 10:51:00
7:51 AM,68.0,57.9,70,30.01,10.0,NNE,6.9,-,N/A,,Overcast,20,2013-07-26 11:51:00
8:51 AM,69.1,57.9,68,30.03,10.0,NNW,8.1,-,N/A,,Overcast,340,2013-07-26 12:51:00
9:51 AM,72.0,57.9,61,30.02,10.0,NE,10.4,-,N/A,,Clear,50,2013-07-26 13:51:00
10:51 AM,73.9,57.9,57,30.03,10.0,NNE,9.2,-,N/A,,Clear,20,2013-07-26 14:51:00
11:51 AM,78.1,59.0,52,30.02,10.0,North,6.9,-,N/A,,Overcast,350,2013-07-26 15:51:00
12:51 PM,78.1,59.0,52,30.01,10.0,NW,6.9,-,N/A,,Clear,310,2013-07-26 16:51:00
1:51 PM,82.0,57.9,44,30.01,10.0,North,9.2,-,N/A,,Partly Cloudy,360,2013-07-26 17:51:00
2:51 PM,82.9,57.0,41,30.00,10.0,Variable,3.5,-,N/A,,Clear,0,2013-07-26 18:51:00
3:51 PM,82.9,55.9,39,29.99,10.0,Variable,3.5,-,N/A,,Clear,0,2013-07-26 19:51:00
4:51 PM,84.0,57.0,40,29.99,10.0,West,9.2,-,N/A,,Clear,270,2013-07-26 20:51:00
5:51 PM,81.0,59.0,47,29.98,10.0,WSW,4.6,-,N/A,,Mostly Cloudy,250,2013-07-26 21:51:00
6:51 PM,82.0,57.9,44,29.99,10.0,West,6.9,-,N/A,,Mostly Cloudy,260,2013-07-26 22:51:00
7:51 PM,79.0,55.9,45,29.99,10.0,WSW,9.2,-,N/A,,Clear,240,2013-07-26 23:51:00
8:51 PM,78.1,55.9,46,30.00,10.0,SW,6.9,-,N/A,,Clear,230,2013-07-27 00:51:00
9:51 PM,75.0,57.0,53,30.01,10.0,SW,4.6,-,N/A,,Clear,220,2013-07-27 01:51:00
10:51 PM,73.0,57.9,59,30.02,10.0,SSW,5.8,-,N/A,,Clear,200,2013-07-27 02:51:00
11:51 PM,71.1,63.0,75,30.04,10.0,SSW,4.6,-,N/A,,Clear,200,2013-07-27 03:51:00